Tracking 18843 objects as of 20-November-2017
HD Live streaming from Space Station
objects crossing your sky now

FLOCK 3P 33

Track FLOCK 3P 33 now!
10-day predictions
FLOCK 3P 33 is classified as:


NORAD ID: 41990
Int'l Code: 2017-008AU
Perigee: 496.9 km
Apogee: 507.9 km
Inclination: 97.5 °
Period: 94.5 minutes
Semi major axis: 6873 km
RCS: Unknown
Launch date: February 15, 2017
Source: United States (US)
Launch site: SRIHARIKOTA (SRI)
aabbcc
Your satellite tracking list
Your tracking list is empty




NASA's NSSDC Master Catalog

Two Line Element Set (TLE):
1 41990U 17008AU  17323.21462741 +.00003714 +00000-0 +15843-3 0  9991
2 41990 097.4789 024.1245 0008021 023.4092 336.7508 15.23522281041455
Source of the keplerian elements: AFSPC